Regional Weather Roundup
Issued by NWS

Home | Current Version | Previous Version | Graphics & Text | Print | Product List | Glossary On
Versions: 1 2 3 4 5 6 7 8 9 10 11 12 13 14 15 16 17 18 19 20 21 22 23 24 25 26 27
000
ASUS45 KCYS 250210
RWRWY

WYOMING REGIONAL WEATHER ROUNDUP
NATIONAL WEATHER SERVICE CHEYENNE WY
800 PM MDT SAT JUN 24 2017

NOTE:  "FAIR" INDICATES FEW OR NO CLOUDS BELOW 12,000 FEET
WITH NO SIGNIFICANT WEATHER AND/OR OBSTRUCTIONS TO VISIBILITY.

WYZ001-250300-
YELLOWSTONE NATIONAL PARK

CITY           SKY/WX    TMP DP  RH WIND       PRES   REMARKS
LK YELLOWSTONE   N/A     62  31  31 VRB3      30.42R
W YELLOWSTONE  NOT AVBL

$$
WYZ002>013-054>058-071-098>099-250300-
NORTHERN WYOMING

CITY           SKY/WX    TMP DP  RH WIND       PRES   REMARKS
JACKSON        SUNNY     70  34  26 CALM      30.32R
CODY           FAIR      66  34  30 N12       30.33R
GREYBULL       FAIR      75  29  18 N17       30.23R
WORLAND        FAIR      71  36  27 N5        30.24R
SHERIDAN       MOCLDY    69  41  36 N5        30.30S
BUFFALO        MOCLDY    63  37  38 N7        30.35R
GILLETTE       MOCLDY    67  28  23 N9        30.31R
NEWCASTLE      FAIR      64  27  24 N13G22    30.30S

$$
WYZ014>020-022>026-101>103-250300-
CENTRAL WYOMING

CITY           SKY/WX    TMP DP  RH WIND       PRES   REMARKS
BIG PINEY      FAIR      72  33  24 N12       30.33R
PINEDALE       FAIR      68  32  26 NW10      30.34S
DUBOIS         FAIR      63  32  31 SE13G18   30.36R
LANDER         FAIR      70  35  27 NE8       30.27R
RIVERTON       MOCLDY    70  32  24 N10       30.28R
CASPER         MOCLDY    68  29  23 E9        30.30R
DOUGLAS        MOCLDY    68  34  28 NE7       30.31R

$$
WYZ021-027>030-104>119-250300-
SOUTHERN WYOMING

CITY           SKY/WX    TMP DP  RH WIND       PRES   REMARKS
EVANSTON       FAIR      73  38  27 W12       30.33R
KEMMERER         N/A     70  32  24 NW10      30.35S
FORT BRIDGER   FAIR      76  28  16 NW7       30.35R
ROCK SPRINGS   FAIR      73  25  16 NW8       30.30S
DIXON          FAIR      73  24  16 NE9       30.32S
RAWLINS        FAIR      67  25  20 NE10      30.35R
SARATOGA       FAIR      66  27  22 N9G20     30.37R
LARAMIE        FAIR      61  37  41 E15       30.39R
CHEYENNE       CLOUDY    64  36  35 E10       30.36R
TORRINGTON     MOCLDY    71  32  23 NE9       30.27R
PINE BLUFFS    CLOUDY    64  39  39 NE6       30.32R

$$




USA.gov is the U.S. government's official web portal to all federal, state and local government web resources and services.